Miscellaneous Local Product
Issued by NWS North Platte, NE

Home | Current Version | Previous Version | Graphics & Text | Print | Product List | Glossary Off
Versions: 1 2 3 4 5 6 7 8 9 10 11 12 13 14 15 16 17 18 19 20 21 22 23 24 25 26 27 28 29 30 31 32 33 34 35 36 37 38 39 40 41 42 43 44 45 46 47 48 49 50

000
AXUS43 KLBF 290110
MISLBF


WESTERN AND NORTH CENTRAL NEBRASKA HOURLY WEATHER ROUNDUP
NATIONAL WEATHER SERVICE NORTH PLATTE NE
800 PM CDT SUN AUG 28 2016

NOTE: "FAIR" INDICATES FEW OR NO CLOUDS BELOW 12,000 FEET WITH NO
SIGNIFICANT WEATHER AND/OR OBSTRUCTIONS TO VISIBILITY.

NOTE: STATIONS NOT REPORTING VARIABLES SUCH AS SKY/WEATHER OR
PRESSURE ARE PROVIDED BY RAWS AND APRS NETWORKS AND ARE NOT UNDER
NATIONAL WEATHER SERVICE QUALITY CONTROL.

...OBSERVATIONS IN AND NEAR THE EASTERN PANHANDLE OF NEBRASKA...

CITY           SKY/WX    TMP DP  RH WIND       PRES   REMARKS
PINE RIDGE     PTCLDY    83  52  34 S10       30.01R
CHADRON        CLEAR     86  39  19 S12       29.99R
ALLIANCE       CLOUDY    79  53  40 S9        30.06S
SIDNEY         CLOUDY    71  54  54 W9        30.15R
CRESCENT LAKE    N/A     77  56  48 S5G13       N/A
$$

...OBSERVATIONS IN NORTHERN NEBRASKA AND FAR SOUTHERN SOUTH DAKOTA...

CITY           SKY/WX    TMP DP  RH WIND       PRES   REMARKS
WINNER         FAIR      86  65  49 S10       29.97R
VALENTINE      CLEAR     82  61  48 SE6       30.00R
THEDFORD       CLEAR     82  55  39 S12       30.05S
AINSWORTH      CLEAR     82  62  51 S10       30.03R
O`NEILL        PTCLDY    83  63  50 S10       30.05R
ORD            CLEAR     81  64  56 S6        30.05R
BROKEN BOW     CLEAR     78  60  53 S9        30.07R
VALENTINE NWR    N/A     87  53  31 S6G16       N/A
BUTTE            N/A     82  62  50 SE10        N/A
HALSEY           N/A     84  57  39 S9G16       N/A
EWING            N/A     81  72  73 CALM        N/A
$$

...OBSERVATIONS IN SOUTHWEST NEBRASKA AND FAR NORTHEAST COLORADO...

CITY           SKY/WX    TMP DP  RH WIND       PRES   REMARKS
HOLYOKE        FAIR      77  59  53 SE8       30.10R
IMPERIAL       CLEAR     77  58  51 S7        30.09R
OGALLALA       CLEAR     81  53  38 SE5       30.07R
NORTH PLATTE   CLEAR     77  60  55 SE6       30.07R
MCCOOK         CLEAR     78  61  55 E7        30.07R
LEXINGTON      CLEAR     79  64  59 CALM      30.08R
STAPLETON        N/A     78  61  55 CALM        N/A
GOTHENBURG       N/A     81  62  52 SE5         N/A
CALLAWAY         N/A     77  66  69 S6          N/A
$$

...OBSERVATIONS IN CENTRAL LINCOLN COUNTY AREA...

CITY           SKY/WX    TMP DP  RH WIND       PRES   REMARKS
N.P. AIRPORT   CLEAR     77  60  55 SE6       30.07R
N.P. DOWNTOWN    N/A     80  61  52 CALM        N/A
N.P. SOUTHEAST   N/A     78  60  54 CALM        N/A
N.P. HILLCREST   N/A     78  60  54 S7          N/A
$$

...SOME OBSERVATIONS FROM AROUND THE REGION...

CITY           SKY/WX    TMP DP  RH WIND       PRES   REMARKS
DENVER         CLOUDY    76  41  28 CALM      30.19R
LARAMIE        LGT RAIN  70  26  19 N5        30.28R
CHEYENNE       CLOUDY    75  38  26 S9        30.22R
SCOTTSBLUFF    PTCLDY    82  56  40 S9        30.07R
RAPID CITY     CLEAR     79  53  40 NE10      29.99R
BISMARCK       CLEAR     81  63  54 SE6       29.91R
PIERRE         CLEAR     86  62  44 E3        29.90R
SIOUX FALLS    PTCLDY    83  70  64 SE13      30.04R
OMAHA          CLOUDY    75  65  70 SE8       30.10R
GRAND ISLAND   CLEAR     82  67  60 SE6       30.07R
KANSAS CITY    MOCLDY    84  71  65 E9        30.08R THUNDER
WICHITA        CLOUDY    77  67  71 CALM      30.07R
OKLAHOMA CITY  PTCLDY    87  62  43 SE12      30.03R
DALLAS         PTCLDY    85  64  49 E8        29.98R
AMARILLO       LGT RAIN  72  64  76 S13       30.11S
DODGE CITY     CLOUDY    71  64  78 SE12      30.09R
HAYS           MOCLDY    79  63  57 S14       30.07R
GOODLAND       CLEAR     80  56  43 SE10      30.09R
$$




USA.gov is the U.S. government's official web portal to all federal, state and local government web resources and services.